Torna al catalogo

COSMOS 839 DEB

AttivoUNKNOWN
NORAD 13947·DEBRIS·🇷🇺 Russia

Lanciato Jul 8, 1976 da Plesetsk Cosmodrome

Loading…

Prossimi Passaggi (prossime 24 ore)

TLE

AggiornatoSource: Space-Track

Epoca: Sep 14, 2026, 05:00 UTC

1 13947U 76067BF  26257.20887215  .00000012  00000-0  29299-3 0  9992
2 13947  65.7191 172.5441 0666656  23.8700 121.7156 12.24398520555198

Traccia COSMOS 839 DEB in tempo reale con AllMySat

Download on the App Store